Zurück zum Katalog

STARLINK-32369

AktivKommunikationVLEO
NORAD 60917·PAYLOAD·🇺🇸 United States

Gestartet Aug 31, 2024 von Cape Canaveral Space Force Station

Loading…

Nächste Überflüge (nächste 24 Stunden)

TLE

AktuellSource: CelesTrak SupGP

Epoche: Sep 14, 2026, 20:51 UTC

1 60917C 24154Q   26257.86923611 -.00045884  00000+0 -14755-2 0  2578
2 60917  53.1567 123.8951 0001241  86.1627  19.8806 15.31725858    17

Verfolge STARLINK-32369 in Echtzeit mit AllMySat

Download on the App Store